Location: Chuathbaluk
(61.5726°N, 159.2454°W)
Time: 03:50:07
(UTC+00:00)

Transit 2A - Pass Details

Date: 02 December 2020
Orbit: 599 x 960 km, 66.7° (Epoch: 26 January)

Event Time Altitude Azimuth Distance (km) Brightness Sun altitude
Rises 08:56:26 0° 294° (WNW) 3,486 9.9 -47.5°
Enters shadow 08:58:25 - 297° (WNW) 2,745 9.3 -47.7°
Reaches altitude 10° 08:59:05 10° 298° (WNW) 2,495 - -47.7°
Maximum altitude 09:04:46 60° 18° (NNE) 912 - -48.0°
Drops below altitude 10° 09:09:52 10° 99° (E) 2,245 - -48.3°
Sets 09:12:09 0° 103° (ESE) 3,110 - -48.4°
